Flag for U.S.A. Weather past 2 weeks in Buffalo, New York, U.S.A.

59 °F

Partly sunny.

Feels Like: 58 °F
Forecast: 49 / 62 °F
Wind: 7 mph from Northeast

Location: Greater Buffalo International Airport

Current Time: Oct 4, 2015 at 2:09:04 PM

Latest Report: Oct 4, 2015 at 12:54 PM

Visibility: 10 mi

Pressure: 30.28 "Hg

Humidity: 64%

Dew point: 47 °F

Location of BuffaloLocation

Historic Weather in Buffalo — Graph


Buffalo temperature yesterday

Maximum temperature yesterday: 48 °F (at 12:54 PM)
Minimum temperature yesterday: 44 °F (at 5:54 AM)
Average temperature yesterday: 46 °F

Past Weeks' High & Low Weather Summary

High78 °F (Sep 24, 3:54 PM)97% (Sep 29, 1:54 PM)30.43 "Hg (Sep 29, 1:54 PM)
Low43 °F (Oct 2, 4:54 AM)39% (Sep 21, 3:54 PM)29.69 "Hg (Sep 19, 3:54 PM)
Average59 °F73%30.22 "Hg
* Reported Sep 19 12:54 PM — Oct 4 12:54 PM, Buffalo, Weather by CustomWeather, © 2015

Note: Actual official high and low records may vary slightly from our data, if they occured in-between our weather recording intervals... More about our weather records


Buffalo weather history for previous 24 hours

Time TempWeatherWind HumidityBarometerVisibility
12:54 PM
Sun, Oct 4
59 °FPartly sunny.7 mph64%30.28 "Hg10 mi
11:54 AM57 °FBroken clouds.9 mph67%30.29 "Hg10 mi
10:54 AM54 °FPartly sunny.7 mph72%30.31 "Hg10 mi
9:54 AM51 °FPartly sunny.9 mph74%30.31 "Hg10 mi
8:54 AM48 °FBroken clouds.12 mph83%30.32 "Hg10 mi
7:54 AM46 °FPartly cloudy.12 mph86%30.32 "Hg10 mi
6:54 AM45 °FPassing clouds.8 mph90%30.32 "Hg10 mi
5:54 AM46 °FPassing clouds.8 mph89%30.30 "Hg10 mi
4:54 AM48 °FPassing clouds.9 mph83%30.30 "Hg10 mi
3:54 AM48 °FPassing clouds.9 mph86%30.30 "Hg10 mi
2:54 AM48 °FMostly cloudy.8 mph86%30.30 "Hg10 mi
1:54 AM48 °FMostly cloudy.10 mph86%30.31 "Hg10 mi
12:54 AM47 °FDrizzle. Mostly cloudy.10 mph90%30.32 "Hg9 mi
11:54 PM
Sat, Oct 3
48 °FMostly cloudy.13 mph83%30.33 "Hg10 mi
11:03 PM48 °FMostly cloudy.16 mph80%30.31 "Hg10 mi
9:54 PM48 °FLight rain. Overcast.15 mph80%30.33 "Hg10 mi
8:54 PM48 °FLight rain. Overcast.20 mph74%30.34 "Hg10 mi
7:54 PM47 °FLight rain. Overcast.15 mph77%30.35 "Hg10 mi
6:54 PM47 °FLight rain. Overcast.17 mph77%30.35 "Hg10 mi
4:54 PM46 °FMostly cloudy.17 mph79%30.34 "Hg10 mi
3:54 PM45 °FLight rain. Overcast.17 mph80%30.34 "Hg10 mi
2:54 PM46 °FLight rain. Mostly cloudy.22 mph73%30.33 "Hg10 mi
Weather by CustomWeather, © 2015

See weather overviewHow to use our weather pages